Regional Weather Roundup
Issued by NWS Goodland, KS

Home | Current Version | Previous Version | Graphics & Text | Print | Product List | Glossary On
Versions: 1 2 3 4 5 6 7 8 9 10 11 12 13 14 15 16 17 18 19 20 21 22 23 24 25 26 27 28 29 30 31 32 33 34 35 36 37 38 39 40 41 42 43 44 45 46 47 48 49 50
000
ASUS43 KGLD 261108
RWRGLD

GOODLAND FORECAST AREA HOURLY WEATHER ROUNDUP
NATIONAL WEATHER SERVICE GOODLAND KS
400 AM MST FRI DEC 26 2014

...OFFICIAL OBSERVATIONS...

CITY           SKY/WX    TMP DP  RH WIND       PRES   REMARKS
GOODLAND KS    CLOUDY    24  22  91 N22G29    29.87S WCI   9
HILL CITY KS   CLOUDY    30  24  78 N16       29.91R WCI  19
IMPERIAL NEB   CLOUDY    24  19  81 N16       29.94R WCI  11
MCCOOK NEB     CLOUDY    26  21  81 N21G30    29.92F WCI  12
AKRON CO       CLOUDY    19  17  92 N16       29.88S WCI   4
BURLINGTON CO  CLOUDY    22  19  89 N22G29    29.85S WCI   6
LIMON CO       CLOUDY    17  16  95 N20       29.84R WCI   1
$$

...UNOFFICIAL OBSERVATIONS...

CITY           SKY/WX    TMP DP  RH WIND       PRES   REMARKS
COLBY KS       CLOUDY    27  27 100 N21       29.89R WCI  13
NORTON KS      CLOUDY    28  21  74 N18       29.90R WCI  16
SHARON SPRINGS   N/A     26  22  84 NE17G25     N/A  WCI  13
TRIBUNE KS     CLOUDY    28  25  86 N20       29.88R WCI  15
KIT CARSON CO    N/A     23  20  87 MISG        N/A
YUMA CO          N/A     21  18  86 N12         N/A  WCI   9
$$



USA.gov is the U.S. government's official web portal to all federal, state and local government web resources and services.